Wind_Speed
17 16 16 16 15 15 15 16 16 15 15 14 14 14 14 13 13 14 14 14 13 14 15 15 16 15 14 14 14 14 15 16 16 13 17 18 13 13 11 11 14 14 13 13 13 13 14 14 14 14 11 9 7 7 9 9 5 4 1 1 2 1 5 1 2 5 8 10 9 8 6 7 9 5 4 5 2 2 3 3 9 16 16 21 25 32 33 29
17 17 16 16 16 16 16 16 16 16 15 15 15 15 15 14 14 14 14 14 14 14 14 15 15 14 14 13 13 13 15 16 17 19 24 23 15 13 12 12 13 13 16 16 16 16 14 12 12 12 9 8 7 8 7 5 3 3 1 1 2 3 8 7 8 9 8 10 9 8 5 6 8 5 3 5 4 4 5 4 10 18 19 24 28 31 31 30
17 17 17 16 17 17 17 17 16 16 16 16 16 15 15 15 14 14 14 14 14 14 14 15 14 14 13 12 12 12 13 17 15 18 21 20 22 21 16 16 15 14 20 19 16 17 14 11 12 11 9 8 7 5 2 2 2 1 1 1 2 1 9 11 11 10 9 11 10 7 4 6 7 5 3 6 6 4 6 6 10 18 22 24 24 27 29 28
17 17 17 17 17 17 17 17 17 17 17 16 17 16 16 16 15 15 15 15 14 14 14 13 13 13 12 11 11 10 12 14 8 4 4 6 18 24 19 17 16 16 21 19 16 15 14 13 11 11 9 8 8 6 4 5 4 2 2 1 3 3 8 13 13 14 12 10 10 7 7 8 6 5 4 7 6 2 3 7 15 21 23 25 23 24 26 26
17 17 17 17 17 17 18 18 18 17 17 17 17 17 16 16 16 16 16 16 15 14 13 12 13 12 11 11 8 8 10 6 2 6 5 3 10 19 20 19 15 17 21 19 17 15 14 14 10 10 8 7 9 7 7 6 6 5 2 3 7 6 8 15 13 16 14 10 11 8 8 8 5 5 3 6 5 1 2 5 17 22 22 25 23 23 23 23
17 17 17 17 17 17 18 18 18 18 18 18 17 17 17 17 17 17 17 16 15 13 12 11 11 11 11 10 7 8 8 3 4 5 5 3 5 12 18 19 16 18 21 19 17 14 13 13 10 9 8 8 10 8 7 7 7 4 0 5 10 7 8 17 14 16 15 11 11 8 8 7 6 6 3 4 2 3 2 6 15 21 22 26 24 22 22 20
18 18 18 18 18 18 18 18 18 18 18 18 18 18 18 18 18 18 17 16 15 14 12 9 10 10 9 9 8 7 9 10 7 3 4 1 3 8 14 17 17 18 20 19 16 14 12 12 11 9 8 8 10 10 8 8 9 4 2 7 10 4 7 18 17 17 16 13 11 9 9 7 7 7 4 4 3 5 6 8 14 21 22 24 22 21 21 20
18 18 18 18 19 18 18 18 19 19 19 18 18 18 19 19 19 19 18 16 15 14 12 8 8 8 7 8 8 8 10 11 3 4 1 2 4 9 12 14 17 19 20 20 16 13 11 12 12 9 9 9 9 9 8 7 7 5 5 6 6 1 5 17 18 17 17 12 11 11 10 8 6 7 6 6 5 7 7 8 15 20 21 21 20 21 20 19
19 19 19 19 19 19 19 19 19 20 19 19 19 19 20 20 20 19 18 17 15 13 11 8 7 6 4 5 8 7 5 2 6 2 2 2 6 12 14 13 17 20 19 19 17 14 11 10 11 11 10 9 9 9 7 5 4 5 7 7 5 2 2 12 17 17 16 12 11 12 10 8 7 7 4 3 5 6 7 13 17 18 21 19 18 20 18 18
20 20 20 20 20 20 20 20 19 20 19 19 19 19 21 21 21 19 17 16 13 12 10 7 5 4 5 7 9 6 1 5 6 3 3 7 10 14 16 15 18 20 18 17 17 15 12 10 10 10 10 9 9 9 8 5 4 6 8 8 6 3 5 9 18 15 14 14 13 12 9 7 6 5 2 4 7 6 10 17 19 19 19 18 18 18 16 18
20 21 21 21 21 21 21 21 20 20 20 19 19 20 22 22 21 18 17 16 13 11 9 6 5 5 8 9 8 4 2 0 4 6 6 10 13 15 16 16 19 20 18 16 16 15 14 12 8 7 7 6 7 8 8 8 5 4 4 6 5 4 8 7 19 14 12 13 11 10 7 5 3 4 4 8 8 8 14 18 19 19 17 18 19 17 14 15
21 22 22 22 22 22 21 21 21 20 19 19 19 20 21 22 20 18 16 14 11 10 6 6 6 5 8 8 11 12 5 3 3 5 7 10 11 14 15 16 18 20 17 14 14 15 15 13 9 9 5 2 7 7 5 9 9 3 2 4 6 7 10 7 17 12 11 12 12 12 7 3 6 4 5 11 8 10 17 18 18 18 16 18 18 16 14 14
21 22 22 22 22 22 21 21 20 18 18 18 18 19 20 20 19 16 13 11 8 6 4 6 7 7 8 6 11 14 8 4 5 5 7 9 10 13 14 14 17 19 17 13 13 13 14 13 9 11 8 6 7 3 6 8 9 5 5 5 6 7 6 9 15 13 12 12 14 11 4 3 8 5 4 7 6 9 17 18 17 18 15 16 17 14 14 15
21 21 21 21 21 22 21 21 20 17 17 16 16 16 17 16 14 11 8 6 3 4 6 8 8 6 7 9 10 5 5 5 5 7 8 10 11 13 14 14 16 18 16 14 12 11 14 13 9 9 9 9 9 5 7 8 7 6 7 7 5 5 4 12 13 13 13 9 13 7 2 4 8 7 5 4 2 6 14 19 16 17 16 15 15 14 14 14
21 21 21 21 20 21 20 19 19 17 16 14 12 13 12 9 7 5 2 1 4 7 8 8 9 7 6 11 10 3 6 8 6 10 9 11 12 12 13 14 16 17 14 13 11 10 12 9 6 7 7 10 11 8 6 7 6 6 7 6 5 5 4 12 10 10 11 10 13 8 3 6 8 10 7 5 4 5 9 18 17 16 17 16 15 14 14 13
22 22 21 20 19 19 18 17 16 16 14 12 9 9 8 5 4 2 2 5 7 9 10 7 11 12 6 4 2 4 9 10 9 11 10 11 11 10 13 14 15 14 12 11 8 8 9 5 5 8 8 9 8 7 6 6 7 7 7 6 6 7 5 10 9 8 12 12 12 8 3 4 6 12 9 6 7 4 3 10 16 18 17 16 14 13 14 13
22 22 21 20 18 17 17 16 15 13 12 10 6 5 7 5 3 4 4 6 7 9 10 8 9 12 8 4 4 6 10 11 10 12 10 10 10 10 13 12 12 11 10 8 5 5 7 6 6 7 8 8 7 6 6 7 7 7 8 6 7 9 8 9 10 9 12 10 8 7 4 2 5 12 10 7 5 1 1 4 7 12 15 15 13 14 13 13
23 23 22 21 19 17 16 15 14 11 10 9 4 3 7 4 1 2 1 5 5 6 10 12 10 7 7 9 10 9 11 12 12 12 10 10 10 11 12 10 9 10 10 8 6 6 7 6 7 6 8 8 7 8 8 8 9 9 9 7 7 9 7 10 12 11 12 10 8 9 7 5 6 9 6 8 6 3 3 4 5 4 13 15 13 15 14 14
23 22 21 20 19 17 16 14 13 11 10 8 5 8 10 6 5 5 7 6 5 6 4 5 9 3 4 7 10 9 12 13 12 11 12 11 10 11 12 9 9 10 10 8 8 9 7 6 8 8 8 9 10 10 11 11 11 11 12 9 8 8 7 11 14 12 12 9 8 9 8 10 11 7 7 9 8 6 4 4 4 6 10 14 13 14 14 14
22 21 20 19 17 17 15 13 11 10 11 9 6 9 8 4 4 4 7 9 9 9 8 4 10 8 6 3 6 8 12 13 11 11 12 11 9 12 11 9 9 10 9 8 9 10 8 7 8 9 10 12 13 13 14 15 15 14 10 8 9 9 7 12 17 13 12 7 7 10 8 11 14 10 9 10 10 8 7 7 4 7 5 10 13 15 16 14
22 20 19 17 16 16 13 11 9 8 11 10 7 8 6 6 5 3 3 7 11 14 13 10 9 9 10 4 7 10 9 10 11 11 12 11 10 11 10 10 10 9 10 11 9 9 9 8 9 12 13 13 13 14 15 16 18 16 10 7 7 9 5 12 19 13 12 8 6 11 9 7 12 11 10 11 10 9 8 9 8 6 1 2 6 10 15 14
21 19 19 18 16 15 11 9 7 7 11 9 7 10 6 10 8 9 9 8 10 12 13 11 10 8 9 8 2 6 6 8 10 10 13 12 11 10 9 11 10 9 11 12 9 8 9 9 12 14 14 14 13 14 15 16 17 14 9 8 8 8 7 13 19 16 11 6 6 12 10 6 10 13 12 12 10 7 8 9 8 7 4 2 5 3 10 15
18 18 18 17 16 13 10 7 6 8 10 8 10 11 7 9 9 11 9 8 9 9 11 10 10 8 8 7 2 6 9 9 11 12 15 13 12 10 9 11 11 10 12 13 11 8 8 9 13 14 13 15 14 13 14 14 12 10 8 6 7 7 10 9 16 22 15 8 9 12 9 8 9 11 11 11 10 8 9 10 8 7 7 7 6 6 9 14
16 15 15 15 15 12 8 7 7 10 10 12 14 8 8 8 9 12 8 8 9 7 8 7 9 9 10 8 5 10 11 8 11 12 16 14 11 9 10 10 11 11 11 14 15 11 9 10 13 15 13 15 15 12 12 10 8 8 10 9 6 6 10 7 10 18 17 12 13 13 7 7 10 10 9 10 10 10 11 13 10 8 6 5 7 9 10 11
14 13 13 13 13 11 8 8 9 12 12 13 10 5 7 8 9 11 7 7 7 5 5 5 7 6 7 7 6 9 10 9 11 12 16 14 12 8 8 8 9 11 12 16 15 11 11 11 13 15 14 15 14 11 11 10 7 7 11 13 9 9 14 9 9 10 10 9 12 13 7 6 9 11 10 10 12 11 11 13 12 8 5 4 7 10 9 9
13 11 11 11 11 11 8 6 6 9 10 7 4 7 8 7 8 10 6 6 4 4 5 6 5 2 5 8 7 8 11 9 10 12 16 14 14 9 7 6 6 10 12 13 11 7 8 11 14 16 15 14 13 10 11 12 8 5 10 15 13 12 16 12 9 8 7 6 14 17 7 5 9 10 11 12 13 15 14 14 13 9 6 5 7 10 10 9
15 11 10 9 10 10 7 8 12 12 8 4 6 9 8 7 7 7 5 3 1 2 4 5 4 3 6 8 9 9 7 7 10 12 15 13 13 9 8 7 7 9 11 8 7 6 9 13 13 14 15 13 11 10 10 12 9 6 8 13 15 16 15 10 7 8 7 5 13 17 8 6 8 8 11 15 14 15 16 14 11 8 7 7 9 10 11 10
16 13 10 8 9 9 9 12 15 13 9 10 10 10 8 7 8 6 4 1 2 1 2 5 3 3 5 7 12 12 3 7 10 11 12 14 14 10 9 8 8 10 12 8 7 6 10 15 12 13 14 11 10 10 10 11 10 9 6 8 15 17 11 6 7 9 9 8 7 11 10 6 7 6 6 10 11 12 14 14 11 9 8 10 11 10 9 8
17 15 12 10 11 12 13 13 14 13 10 11 10 9 8 9 8 5 2 1 0 1 1 3 3 5 5 7 13 14 6 6 6 8 11 13 14 11 7 7 11 12 14 13 9 8 10 14 11 12 11 7 9 12 12 11 10 11 9 9 11 13 8 6 8 8 8 8 6 10 13 7 5 7 4 4 7 9 10 12 12 14 13 14 13 11 9 8
17 16 13 12 11 12 11 13 15 13 9 9 10 9 10 8 5 3 0 1 2 2 2 1 4 6 7 9 11 13 11 8 5 9 10 9 12 11 6 5 10 10 13 14 11 10 10 7 3 6 7 5 9 12 12 10 10 10 6 8 8 9 8 8 6 5 6 7 9 12 15 9 5 7 6 5 6 8 8 9 10 14 15 14 12 13 13 10
18 16 13 12 11 11 10 7 6 8 8 9 9 8 8 4 3 4 1 2 1 1 1 3 6 7 9 11 9 10 11 7 6 9 8 6 10 10 6 5 6 6 8 10 9 11 10 7 5 4 7 8 9 11 11 10 11 10 6 6 6 4 6 7 5 6 6 6 9 13 14 11 7 7 8 8 10 11 8 9 11 12 13 11 9 11 13 10
17 16 13 13 12 12 12 8 9 9 7 7 8 6 4 2 3 4 1 1 2 1 3 3 4 7 11 12 11 11 11 8 7 8 8 7 8 8 7 6 5 5 6 7 9 10 11 9 9 8 10 12 11 9 9 9 10 10 7 6 6 5 6 7 8 8 7 7 9 13 13 5 6 7 10 10 11 13 10 10 12 13 12 11 8 7 9 9
16 16 14 13 14 14 13 9 8 8 7 7 6 2 3 3 3 4 3 2 1 1 2 4 4 7 12 12 11 12 11 8 10 9 9 10 9 9 10 11 11 8 5 6 10 11 8 8 12 11 9 12 14 9 8 8 9 10 8 7 7 7 7 7 8 8 7 9 12 15 12 5 8 7 10 10 9 11 10 8 10 13 11 9 8 7 7 9
16 17 16 14 16 17 13 10 7 6 7 8 4 3 3 3 4 8 7 4 3 1 1 4 5 8 11 9 7 10 9 7 11 11 10 10 8 9 10 12 13 9 6 7 9 10 9 6 9 10 6 9 13 11 9 10 9 9 9 8 8 8 7 7 7 8 8 8 12 15 8 7 9 8 10 11 10 10 9 8 10 13 10 6 5 6 7 9
16 17 16 16 18 17 13 12 8 4 7 7 3 1 2 2 3 6 5 5 5 2 2 3 4 5 8 5 4 10 8 5 10 10 10 10 5 7 10 9 10 7 8 7 5 8 12 8 9 13 10 11 13 13 11 10 10 9 9 8 9 8 7 6 7 9 9 8 8 7 2 7 9 10 11 11 11 10 9 10 12 14 12 6 3 4 5 6
16 15 13 16 18 12 9 10 7 4 6 3 2 2 3 3 4 5 5 6 7 4 2 1 4 4 4 2 3 8 6 4 9 10 9 8 3 1 6 5 6 2 5 2 2 4 9 9 11 15 10 9 14 14 9 7 6 6 9 10 8 9 9 7 6 9 9 9 6 6 9 9 10 10 10 12 13 11 10 11 12 13 14 10 5 5 4 2
15 14 12 14 12 5 4 7 5 6 6 1 1 4 4 2 5 6 6 6 5 4 3 2 2 2 2 3 4 5 3 4 8 8 6 6 6 6 2 3 3 3 5 4 4 6 6 4 10 14 9 7 13 16 10 8 7 5 8 10 9 10 11 6 5 8 9 9 6 11 15 12 10 8 10 14 15 13 11 10 10 11 12 10 8 7 4 4
14 14 13 10 6 4 5 6 6 8 5 1 3 7 5 2 6 6 6 7 6 6 6 2 2 3 0 4 4 5 6 6 7 7 3 5 4 5 6 4 4 3 5 5 5 7 7 1 8 9 9 7 8 11 10 11 14 10 5 5 6 8 8 6 5 6 7 8 6 12 16 12 9 9 13 15 14 14 12 11 10 9 9 8 8 8 6 8
13 11 7 6 5 5 4 5 7 7 2 2 3 4 3 4 7 6 5 3 3 7 6 2 3 0 3 5 3 6 7 7 6 5 3 4 3 6 7 4 4 6 6 7 6 6 7 3 5 6 8 8 7 7 7 8 11 10 7 6 6 6 6 7 6 5 5 7 6 7 8 5 5 7 13 14 13 13 13 11 10 9 8 7 6 6 6 8
11 8 1 3 2 4 4 8 8 5 2 3 4 2 3 5 7 5 4 2 1 3 3 5 5 2 1 1 2 4 6 7 5 4 3 2 1 4 6 5 6 7 7 8 9 7 7 4 4 5 7 8 6 7 9 9 9 8 6 6 6 6 6 7 7 7 6 5 4 5 5 3 3 4 11 14 12 12 12 12 10 9 9 7 5 5 6 6
10 6 2 3 2 2 6 8 5 4 3 2 1 4 6 5 4 4 4 3 2 1 1 4 6 5 4 3 2 4 3 1 2 3 2 2 3 3 6 7 8 8 7 8 9 5 4 3 1 4 7 7 8 11 12 10 9 9 8 8 8 8 7 7 7 9 8 6 3 4 7 5 2 5 10 12 12 12 12 12 10 9 10 8 5 4 3 4
8 4 4 5 1 3 7 6 2 3 2 2 3 4 3 3 5 3 2 2 2 1 1 2 2 4 4 3 1 1 1 3 4 3 2 2 4 5 6 7 9 8 7 7 5 5 5 3 3 2 4 4 7 12 10 5 6 7 7 8 8 8 8 8 8 7 9 9 2 5 7 5 3 5 9 11 12 12 12 12 11 10 10 9 7 6 4 6
5 1 5 5 2 5 8 5 1 1 4 4 2 3 3 4 5 4 1 2 2 1 1 1 1 1 2 4 5 2 1 2 3 2 1 2 3 6 6 7 10 8 6 5 6 8 6 4 4 3 2 1 4 6 4 5 5 6 7 8 9 10 9 8 5 1 4 10 4 5 5 5 4 6 9 11 12 12 11 11 11 10 9 9 9 8 7 8
6 3 3 4 3 8 6 3 1 2 4 2 1 4 3 4 7 7 6 6 5 3 2 3 2 1 1 1 5 5 6 4 2 2 1 2 4 3 4 6 10 8 5 6 7 6 5 2 3 2 3 5 5 3 3 7 6 6 8 8 10 11 8 7 7 3 3 6 2 5 4 5 6 7 9 11 12 13 11 10 11 10 9 8 9 10 9 8
7 5 2 2 2 4 3 4 4 4 3 1 3 3 3 3 4 6 7 6 6 6 3 2 2 2 1 2 3 3 4 5 4 5 2 3 5 2 4 6 7 8 8 8 9 6 4 3 2 3 4 4 3 2 3 5 6 7 9 11 13 13 8 8 6 2 5 5 4 7 6 7 8 9 10 11 12 12 11 10 10 10 10 9 9 9 9 9
6 3 0 1 1 1 3 4 4 3 1 1 2 2 2 4 4 1 5 4 4 6 5 2 3 3 2 2 4 3 2 4 3 2 1 3 5 3 4 4 5 8 9 10 9 6 4 4 2 1 2 3 2 3 7 6 6 10 10 12 13 9 7 7 5 4 3 1 3 8 13 14 12 11 11 12 12 12 12 11 10 10 10 9 9 9 9 9
4 3 4 3 2 2 3 3 4 3 3 2 1 2 2 3 3 3 3 4 3 5 4 3 4 3 2 4 3 2 2 2 1 1 1 3 4 4 1 2 5 5 10 9 5 3 4 4 5 4 4 5 5 5 8 9 7 9 15 17 12 7 8 10 7 4 1 3 3 8 15 16 15 14 14 14 12 12 11 11 11 11 11 10 10 10 11 11
4 2 3 4 3 3 4 5 5 5 5 4 1 2 3 4 4 4 4 3 3 4 4 1 4 6 5 5 4 5 5 5 4 4 4 4 2 3 4 1 5 3 6 6 4 3 5 5 5 5 8 8 5 8 8 8 12 8 10 12 7 6 11 11 9 11 9 1 7 11 12 12 14 15 15 14 13 12 10 9 10 11 10 10 11 11 12 12
6 2 3 3 2 3 3 3 3 6 6 5 3 3 4 5 5 5 4 3 4 4 5 3 5 7 7 6 6 4 2 4 4 4 4 4 4 2 2 2 4 4 4 5 5 3 2 3 4 5 6 6 5 7 8 7 11 9 1 2 3 5 10 11 12 15 10 6 14 15 13 11 11 13 14 13 12 11 9 8 10 12 10 9 10 11 12 12
7 4 4 3 1 3 1 2 0 3 3 1 1 3 4 5 7 6 6 6 5 4 5 5 6 6 7 7 6 4 5 4 2 2 3 4 3 3 3 3 4 5 5 4 3 3 2 1 3 6 7 4 4 5 7 7 8 9 4 2 2 7 8 7 8 10 4 7 12 13 13 10 8 11 13 11 10 11 9 7 9 10 9 8 10 11 11 12
9 6 5 5 2 2 3 2 1 2 2 3 2 2 3 5 6 5 6 8 7 6 6 5 4 4 5 6 6 6 6 4 3 4 5 4 4 2 3 3 4 6 5 3 2 3 4 2 1 2 5 6 5 5 7 8 7 10 10 5 5 8 8 5 4 5 5 6 11 11 10 7 8 13 14 11 11 11 10 9 8 8 7 8 9 9 10 11
12 8 7 7 2 2 3 2 0 1 2 5 3 3 3 4 4 3 3 4 5 6 6 4 3 2 3 5 5 6 6 5 5 4 3 3 3 2 2 2 3 4 4 4 3 2 4 4 2 3 4 7 8 7 5 5 5 8 8 6 8 10 8 7 4 2 6 4 9 10 7 8 12 14 14 12 12 11 10 9 8 6 6 7 8 9 9 10
Wind_Direction
344 343 343 343 342 341 340 339 339 338 337 335 334 332 331 328 325 322 317 312 309 306 305 305 305 308 313 317 319 319 323 312 298 276 247 249 241 236 251 227 220 226 198 189 214 216 209 215 225 224 228 235 235 242 230 226 206 115 91 247 293 36 99 163 105 89 115 129 138 145 162 138 125 133 125 126 143 196 185 198 149 133 131 132 135 139 138 139
342 341 341 340 339 338 337 337 337 336 334 332 331 329 328 325 323 321 316 312 308 304 304 302 303 306 310 316 318 322 324 304 286 271 254 249 244 243 249 231 232 224 190 195 216 213 212 213 214 216 223 234 227 231 226 220 181 131 210 232 307 39 98 135 111 95 119 128 134 141 142 126 130 139 148 158 159 171 162 164 140 128 128 132 138 141 140 142
341 340 339 338 337 336 335 335 335 334 332 330 329 327 326 324 321 319 316 313 307 303 301 300 302 304 309 315 318 326 318 300 280 264 259 248 234 236 242 233 234 218 194 199 213 213 220 217 208 213 221 235 230 211 178 216 222 142 226 280 288 73 106 123 115 107 124 130 130 131 127 124 133 138 169 171 155 166 161 160 145 132 135 139 143 143 142 144
339 338 337 336 335 335 334 333 333 332 330 328 327 326 323 321 319 317 315 311 306 302 298 300 302 302 310 313 317 330 309 291 275 248 279 237 220 225 230 230 231 213 200 206 220 219 225 227 214 216 225 239 232 201 181 205 187 156 235 308 267 225 119 121 126 123 128 133 127 125 133 132 136 133 157 163 145 182 203 164 147 140 142 142 145 146 145 146
338 337 336 334 333 333 332 332 331 329 328 326 325 324 322 319 317 315 312 309 305 300 297 297 299 303 308 310 320 322 297 281 101 97 72 99 200 217 224 228 227 206 202 212 226 225 226 233 224 221 230 247 243 215 210 207 160 156 211 309 282 268 121 122 131 131 133 134 127 136 136 126 132 120 143 167 154 160 253 189 149 143 145 145 148 148 147 148
335 335 334 332 331 331 331 330 328 327 326 324 323 322 319 317 315 312 310 307 303 298 295 293 298 304 305 309 316 296 270 277 37 93 103 90 181 213 220 227 223 203 205 216 228 228 222 230 227 222 225 240 253 242 217 188 165 165 252 277 266 275 113 123 138 135 133 136 135 142 124 115 137 120 121 167 162 135 200 232 158 145 147 147 148 150 150 151
334 334 332 331 330 329 331 329 326 325 323 322 321 319 318 317 314 312 309 306 302 296 291 289 294 299 306 309 295 265 245 269 301 124 124 69 200 214 215 219 215 201 207 217 226 225 217 225 224 222 227 233 247 251 238 193 182 178 186 249 247 281 97 129 146 137 131 138 137 133 124 136 150 125 142 182 222 183 196 229 163 145 148 149 149 151 151 152
333 333 331 331 329 329 330 327 325 324 321 321 319 318 316 316 315 313 310 305 299 292 287 284 290 297 315 316 284 252 243 252 233 128 84 301 219 205 198 202 203 201 207 213 221 222 215 224 223 222 227 234 243 248 251 217 198 184 184 238 236 260 102 132 138 130 131 134 130 132 139 150 145 128 157 183 213 214 206 190 162 150 149 151 152 152 152 154
333 332 331 330 328 327 327 325 324 322 320 319 318 318 315 317 318 314 310 304 297 289 283 276 276 284 307 307 281 267 257 157 116 126 288 227 204 189 183 189 193 198 207 212 220 223 217 223 225 227 236 251 268 268 256 215 197 208 201 221 220 218 188 136 126 130 134 129 129 133 139 140 135 136 148 204 227 229 190 160 160 156 150 153 154 151 152 153
332 331 329 329 327 325 325 323 323 321 320 320 319 319 318 319 317 313 309 304 298 284 275 266 258 264 267 262 261 264 97 107 112 123 166 161 170 173 183 191 189 196 206 210 220 225 220 226 223 230 254 269 284 286 271 230 189 210 210 218 213 222 249 137 122 133 128 125 137 134 134 133 143 160 157 241 248 229 179 161 159 158 152 154 153 150 153 153
332 331 329 327 325 324 324 323 321 319 320 322 321 320 320 318 315 313 306 302 298 279 264 251 230 233 257 260 255 257 49 121 147 129 151 159 163 175 189 192 189 197 206 211 219 223 222 230 233 234 250 260 267 268 263 253 236 209 205 239 227 226 255 141 120 131 123 126 135 121 119 120 172 221 174 187 229 221 177 160 155 156 154 156 153 151 155 157
331 330 329 327 325 324 323 321 320 318 320 323 323 322 320 317 314 310 301 299 294 273 249 228 206 222 262 266 248 245 288 314 167 142 162 166 174 183 190 193 194 199 209 216 218 220 223 230 244 245 245 268 254 256 270 255 249 225 156 246 238 227 246 146 117 125 123 126 130 122 116 140 204 212 159 168 198 208 171 156 158 158 157 157 153 154 159 162
331 330 328 327 325 322 321 319 318 319 321 324 325 322 319 317 314 309 301 294 283 259 225 200 192 228 257 267 250 234 247 265 171 162 170 173 183 185 194 199 196 205 218 225 219 215 224 232 249 258 268 277 251 293 330 262 236 224 184 217 236 232 224 120 111 121 118 125 144 149 133 180 204 171 147 172 191 201 167 159 164 158 159 159 153 158 159 160
333 331 329 328 325 322 321 319 319 321 322 324 326 323 321 321 318 314 306 287 247 187 183 182 186 227 245 262 276 225 222 271 180 184 184 178 182 182 195 199 197 210 223 233 230 214 222 233 245 263 270 270 269 316 312 257 222 222 211 206 225 246 175 119 117 126 117 132 160 168 133 185 197 156 166 187 198 232 173 163 165 157 161 158 154 160 157 158
334 333 331 329 326 323 320 319 320 322 323 324 326 327 327 330 340 340 322 190 162 163 170 180 195 223 255 253 262 191 207 256 210 195 193 185 186 185 193 192 196 210 220 233 235 214 219 232 232 249 256 255 266 284 273 243 217 217 220 210 205 234 159 120 123 135 130 147 167 182 158 175 185 151 160 166 150 260 187 166 164 159 162 156 156 159 154 160
335 333 331 330 327 323 321 321 322 323 324 323 326 342 348 348 19 65 111 135 153 161 162 185 200 213 272 275 207 154 198 222 207 195 196 195 193 186 184 184 194 207 215 224 236 220 212 224 228 236 251 246 243 251 245 227 214 207 216 226 200 213 186 126 122 144 145 147 171 198 146 146 165 140 148 153 151 219 217 176 168 162 163 157 160 160 156 162
335 333 331 330 327 325 324 323 323 325 323 317 320 5 18 9 53 93 109 131 149 169 184 240 227 209 254 279 210 204 197 203 197 187 191 196 193 180 173 180 194 200 203 208 239 229 190 204 227 226 242 244 227 227 234 221 211 199 206 222 201 214 214 148 137 151 150 149 173 171 123 193 157 132 140 122 118 190 287 243 193 166 165 159 161 164 160 163
337 334 331 328 327 328 327 324 324 326 318 306 284 326 347 347 70 68 103 134 150 201 222 260 254 228 254 243 230 210 187 192 185 179 187 189 186 174 173 187 189 185 191 196 215 212 185 197 217 219 222 227 224 219 225 221 211 201 200 210 206 216 213 155 149 161 160 160 165 141 140 193 138 119 132 115 130 183 180 241 276 207 173 162 165 166 163 166
337 333 332 329 328 330 328 326 326 324 316 300 282 303 309 287 258 260 236 197 190 225 254 231 212 267 315 212 216 204 180 178 173 177 187 185 178 172 184 196 182 185 193 189 196 199 194 198 207 221 218 213 218 219 229 234 230 221 204 201 209 214 202 155 145 155 163 158 153 142 156 165 134 140 164 136 156 169 151 191 275 269 190 165 171 167 165 170
339 337 336 332 332 333 329 329 326 322 315 303 300 294 283 272 260 228 216 217 223 251 296 254 204 245 283 155 144 164 158 161 176 185 187 186 174 173 189 195 184 196 204 195 193 193 201 209 207 216 219 214 214 221 237 245 252 252 230 216 214 214 214 160 141 146 158 152 157 152 151 149 135 154 171 147 159 165 149 151 188 260 224 171 179 170 167 172
342 341 340 338 338 336 331 327 324 321 310 308 311 285 297 4 352 351 320 247 235 242 258 262 241 249 274 321 106 146 152 166 192 189 182 188 181 176 182 191 192 195 209 210 196 189 205 219 215 214 222 224 216 217 233 245 254 263 265 271 246 220 204 137 134 147 160 156 165 146 135 147 139 148 172 160 160 173 164 153 173 217 238 195 209 177 171 172
343 344 343 342 343 341 335 324 320 312 305 307 286 263 302 5 349 335 329 286 263 245 232 244 262 267 278 294 139 168 199 184 191 186 176 186 192 183 171 188 204 193 203 215 201 190 205 224 223 213 219 230 228 219 226 239 247 258 264 276 271 219 162 130 139 153 170 170 159 149 143 160 151 150 168 170 166 173 170 163 170 177 159 203 260 240 184 176
345 346 344 343 344 348 338 312 297 292 292 279 267 273 320 352 338 329 316 286 288 261 224 222 239 241 244 261 195 208 237 199 193 187 173 188 202 195 185 191 210 205 200 209 208 201 202 220 226 220 215 225 234 224 222 235 239 256 258 254 271 211 170 164 153 152 166 173 161 165 156 150 155 153 163 174 171 162 167 174 169 169 174 185 212 238 204 185
345 344 344 343 339 347 342 308 277 268 262 251 263 299 350 340 334 336 323 282 281 253 232 217 216 224 222 232 194 205 234 210 201 185 167 193 206 197 208 201 207 214 206 208 213 216 215 212 217 225 219 216 232 226 216 232 227 236 247 243 256 214 205 210 155 154 170 169 163 173 164 145 155 158 166 176 171 163 169 175 173 176 179 176 205 223 213 197
341 339 341 341 333 338 330 295 259 248 247 251 266 337 347 335 344 338 324 287 270 203 203 198 204 219 197 205 190 202 229 215 210 183 162 200 212 189 213 210 212 222 208 206 215 220 223 213 203 220 224 214 227 227 211 225 227 220 233 239 230 208 225 220 148 168 191 164 166 179 168 147 163 163 166 170 165 165 171 172 174 180 175 174 205 209 207 210
336 331 335 340 330 323 312 298 290 274 263 261 319 1 336 342 353 329 307 284 269 159 162 173 197 183 154 193 190 203 225 212 210 176 159 204 225 210 221 205 205 233 220 204 211 226 226 219 205 209 220 214 218 229 214 212 226 222 211 229 237 221 228 221 166 189 227 173 175 189 179 137 165 162 164 176 166 164 175 174 171 173 169 187 211 199 189 201
333 323 325 335 323 314 306 320 327 311 303 356 357 337 331 340 332 316 303 273 223 132 147 147 175 175 177 199 188 208 222 177 184 169 161 202 222 227 239 214 195 231 239 208 196 222 224 226 214 201 214 213 209 227 213 199 219 236 197 205 229 239 239 232 197 206 241 220 183 193 192 139 152 151 166 181 167 166 177 163 155 165 169 190 207 195 180 187
332 320 312 319 317 302 280 296 311 306 334 9 343 323 331 321 296 279 284 333 79 117 159 112 93 193 207 193 191 217 213 140 172 158 161 200 211 220 230 239 243 227 232 226 197 195 214 228 214 192 217 216 199 224 210 192 214 236 246 224 219 234 254 263 240 220 222 240 206 190 191 159 142 133 154 167 156 172 171 142 142 165 184 207 199 182 177 184
332 324 306 301 308 298 272 271 286 295 330 348 327 325 318 297 290 271 270 348 350 238 168 103 140 208 213 185 199 217 187 163 198 152 162 199 213 233 235 257 268 235 223 235 220 187 205 230 215 194 224 214 185 223 217 193 211 229 272 284 218 204 226 245 245 227 212 238 242 197 191 185 143 140 144 142 153 178 162 143 160 169 181 203 188 168 178 191
330 325 310 297 299 304 281 250 253 272 308 327 320 318 296 282 289 277 222 6 245 162 101 130 178 197 201 186 199 217 200 191 200 163 168 190 205 236 271 294 283 250 221 229 227 211 201 201 185 193 230 225 193 220 223 199 211 222 248 270 216 183 206 223 231 236 220 233 240 216 197 174 137 157 173 164 158 168 160 152 164 168 176 188 181 172 178 183
327 325 310 291 288 307 301 263 266 295 314 321 309 292 284 290 292 282 12 27 315 74 223 197 162 174 198 196 185 206 212 178 151 175 178 181 199 219 244 247 267 256 222 218 230 245 230 172 139 204 229 242 228 221 221 206 211 217 210 229 220 182 214 220 216 232 233 228 230 225 209 178 140 154 168 162 155 157 165 162 159 170 175 174 182 180 173 174
321 319 302 283 281 289 290 308 347 336 322 313 294 280 296 313 272 267 7 325 275 336 294 241 169 171 195 200 181 189 206 164 150 198 190 184 202 208 221 214 201 216 218 204 206 231 235 188 168 197 212 226 238 221 205 204 214 220 204 199 208 190 201 216 214 216 229 239 235 230 224 191 99 123 147 153 151 145 151 164 161 167 173 171 178 173 165 174
313 313 298 280 277 274 273 290 318 320 316 292 278 337 4 311 296 298 320 1 36 63 305 264 214 177 192 200 180 183 202 172 169 202 194 194 203 192 215 227 206 211 227 203 202 203 201 192 188 190 194 215 232 227 196 191 203 219 208 186 203 204 195 210 219 216 223 238 247 245 231 152 104 124 139 139 135 126 131 143 140 145 158 166 168 167 172 181
304 301 291 280 274 272 271 270 275 299 300 276 256 55 4 308 313 308 321 35 58 137 209 258 217 174 196 208 169 180 208 180 171 190 187 188 204 188 202 229 215 226 251 204 210 213 193 194 199 192 185 203 225 243 229 201 190 211 220 197 206 219 202 202 215 216 217 223 238 246 231 138 128 139 133 126 120 117 126 126 113 119 131 138 153 164 181 185
296 288 284 277 268 264 258 247 249 279 284 276 269 327 318 295 284 304 338 22 352 343 120 275 269 195 200 216 185 197 218 193 175 201 200 180 205 201 187 206 208 239 269 214 218 234 211 203 183 190 203 190 206 245 247 216 191 198 221 213 208 219 215 211 216 216 217 217 221 223 142 104 120 133 131 126 121 119 127 127 114 106 107 113 159 167 178 179
293 280 266 256 255 260 255 244 238 242 266 298 4 304 292 291 310 349 1 349 338 349 90 210 260 234 189 189 248 220 221 215 189 207 211 167 71 50 167 176 180 212 326 293 307 283 230 221 172 173 195 185 202 237 238 206 205 201 213 219 222 236 241 236 226 222 218 217 202 134 109 118 128 135 142 136 127 121 118 120 121 118 118 123 136 141 166 196
300 284 265 247 246 276 293 265 241 226 250 288 37 289 271 279 342 4 0 350 347 338 0 15 314 330 138 184 248 229 228 239 199 194 203 158 76 32 8 20 70 79 18 3 315 317 289 244 144 153 178 182 210 234 228 211 231 228 207 210 222 245 257 264 246 225 213 221 198 131 133 148 145 143 152 144 132 123 119 118 120 126 126 125 115 95 110 173
302 289 281 252 240 311 302 263 240 227 242 309 288 286 285 25 26 18 17 8 344 349 25 40 355 18 283 244 229 204 229 253 212 191 196 174 126 12 335 338 19 9 357 347 305 310 307 257 129 155 188 175 198 230 233 221 223 231 238 230 234 239 239 243 257 241 212 223 203 138 143 154 147 149 156 149 138 130 125 116 113 113 106 114 114 69 61 138
291 280 274 213 215 308 297 233 236 232 230 341 300 289 301 47 53 42 35 26 334 359 22 344 328 4 243 269 241 204 221 241 228 198 195 194 148 16 347 329 344 345 344 323 290 296 300 248 157 184 199 178 181 212 227 220 218 238 281 295 266 253 236 219 222 241 239 230 200 149 147 138 110 141 148 137 130 130 120 103 99 99 78 72 98 67 46 110
279 267 198 157 238 301 253 225 238 243 202 235 250 278 355 33 60 64 34 352 329 12 341 320 345 11 174 169 219 246 228 217 223 184 174 246 91 51 10 346 320 323 330 300 276 278 283 250 173 186 197 181 177 204 217 212 207 223 246 247 232 230 244 240 220 219 239 248 203 150 138 105 60 113 129 119 114 118 112 101 96 93 82 65 68 65 45 87
284 273 68 26 310 224 240 241 248 263 237 205 263 26 25 355 358 62 64 352 322 66 341 309 332 357 32 82 193 271 270 187 13 40 89 338 346 45 17 347 314 312 314 277 263 276 293 283 138 174 195 196 195 201 210 219 220 218 224 229 220 211 223 237 230 216 218 244 251 143 134 123 89 118 125 119 114 114 112 110 108 101 100 97 91 89 65 87
282 284 39 11 325 212 258 270 274 295 333 32 18 34 36 298 314 10 67 348 327 13 167 229 286 343 355 357 347 277 309 59 50 32 31 358 8 24 11 337 316 306 296 279 293 356 354 305 287 239 211 210 187 179 186 229 258 256 255 242 224 217 223 229 228 221 222 232 239 96 120 131 133 134 126 117 111 113 115 114 112 106 99 97 95 93 67 35
274 328 60 37 320 253 270 281 252 11 32 22 351 37 17 331 357 13 5 13 359 287 249 184 85 336 293 316 334 343 34 52 91 115 195 183 66 26 2 344 332 317 304 320 351 358 339 270 255 308 323 164 131 137 183 244 262 267 257 248 241 222 218 247 263 290 250 234 194 100 115 144 158 141 121 116 112 111 115 113 109 105 99 99 98 89 72 51
313 324 79 62 283 263 276 305 338 82 71 29 46 89 68 8 7 5 14 21 1 336 355 21 28 274 221 278 307 344 52 63 329 295 241 127 89 35 4 1 345 348 19 12 353 338 320 265 222 273 250 202 168 130 217 230 238 253 231 233 258 242 235 296 318 29 312 267 133 94 119 140 150 146 132 131 125 116 118 121 116 114 112 111 105 95 90 86
313 281 179 87 277 269 328 354 0 66 92 91 73 90 117 90 30 346 354 7 354 353 8 15 329 295 311 147 244 319 80 141 239 271 251 95 94 75 31 23 357 10 30 2 333 317 311 319 279 250 240 227 203 210 249 225 210 232 234 223 232 240 261 311 324 316 276 276 80 95 126 134 143 153 146 139 129 118 118 118 114 114 116 115 111 107 104 101
305 283 241 80 339 9 46 11 354 29 74 127 72 35 18 72 90 14 335 351 2 347 345 5 335 301 302 261 210 204 194 195 216 250 221 98 99 86 21 20 34 21 352 330 323 312 307 314 305 280 292 324 339 284 295 293 211 208 233 236 230 246 280 283 289 316 310 307 81 115 137 142 151 161 153 138 131 129 126 125 123 118 111 110 111 111 109 101
297 340 0 3 339 6 61 33 11 18 18 29 17 336 20 42 77 96 19 359 3 329 328 358 334 333 3 306 270 116 48 311 223 121 50 27 80 103 6 347 54 20 322 318 328 327 311 262 215 193 240 284 331 323 309 317 295 231 223 229 233 255 274 265 262 272 317 38 75 130 140 148 157 163 157 144 137 141 138 132 130 122 116 119 116 110 106 102
322 24 19 344 319 355 28 21 22 42 42 45 9 320 48 52 34 60 54 29 22 334 324 18 359 5 23 360 3 43 30 1 358 21 33 4 342 149 162 91 52 16 309 327 16 356 306 269 228 210 225 241 294 313 297 306 318 293 222 219 233 239 248 258 260 261 271 10 129 150 153 156 157 156 154 148 143 142 131 117 109 103 109 119 116 105 98 96
337 27 32 341 319 22 32 3 26 58 44 29 41 26 43 73 65 47 29 36 64 25 357 34 41 9 4 29 54 64 48 23 0 355 11 349 328 339 120 93 55 29 348 348 18 19 297 307 340 312 269 236 252 290 289 293 320 327 174 143 339 283 256 252 248 256 266 116 134 157 157 147 150 149 146 145 142 135 128 124 113 103 104 109 103 98 93 88
344 7 0 331 24 36 346 279 255 104 92 12 26 47 42 62 72 59 28 29 57 56 33 48 62 39 19 32 61 80 67 51 28 12 352 336 343 355 7 33 21 5 2 346 355 4 327 346 10 325 306 269 226 259 276 278 301 303 265 165 288 285 279 267 258 264 259 124 138 157 146 130 143 145 135 131 132 130 130 129 114 106 109 103 91 90 90 86
343 351 337 315 2 22 299 293 277 232 125 92 44 47 69 66 65 66 48 40 38 39 49 60 63 61 52 43 46 50 43 17 8 23 1 352 22 12 0 21 341 326 353 4 346 330 299 263 159 255 277 262 221 208 244 260 280 280 267 232 228 259 268 256 252 273 258 165 146 148 142 136 152 145 128 119 124 128 127 119 106 104 111 104 94 90 87 86
351 346 337 313 300 179 237 240 177 298 46 78 58 25 63 65 50 41 45 57 51 33 33 33 4 12 78 67 42 18 1 345 346 351 328 331 358 345 350 20 329 322 348 350 340 320 296 300 277 218 241 261 246 220 226 261 261 259 266 256 233 231 241 242 217 266 289 236 159 154 153 146 147 143 135 133 137 138 133 122 107 94 89 88 92 93 87 84
Height
800 798 797 796 795 794 793 791 790 789 788 787 786 785 784 783 781 780 779 778 777 775 775 774 772 772 771 770 769 767 766 764 762 762 758 748 746 747 747 748 748 750 752 753 753 753 752 752 751 749 750 749 748 746 743 742 742 762 782 789 794 786 779 778 773 770 771 778 780 780 778 779 783 778 771 771 775 775 772 770 763 760 762 767 772 774 778 783
799 798 796 795 794 793 792 791 789 788 787 786 785 784 783 782 781 779 778 777 776 775 773 773 772 771 770 770 769 767 766 763 762 757 748 742 745 746 746 747 747 749 750 751 751 749 750 750 748 747 750 751 747 743 742 740 743 767 780 782 788 777 768 765 764 765 768 774 777 777 776 776 779 777 772 778 783 777 776 775 767 768 769 770 773 775 780 782
799 797 796 795 794 792 792 790 789 787 786 785 784 783 782 781 780 778 777 776 775 773 772 772 771 770 770 769 768 768 766 763 759 749 739 738 743 743 744 746 746 748 749 749 749 747 747 746 745 747 751 752 745 741 747 749 751 764 771 778 781 771 764 757 759 764 764 768 774 778 776 777 777 774 776 781 785 781 781 780 775 778 777 775 775 775 780 782
798 797 795 794 793 792 790 789 788 786 785 784 782 782 781 780 779 777 776 775 773 773 772 771 770 770 770 769 768 768 766 764 753 739 735 736 739 741 743 744 745 747 748 748 748 746 744 742 742 744 750 753 744 739 749 750 752 762 767 774 769 760 763 758 756 759 761 766 772 777 778 780 777 774 778 781 788 790 783 777 774 777 776 775 777 776 779 783
797 796 795 793 792 791 790 788 787 785 784 782 781 780 779 778 778 776 775 773 772 771 771 770 769 769 769 768 768 767 768 765 745 733 736 736 737 740 741 743 744 746 747 748 747 744 744 741 741 745 750 754 746 742 746 738 743 760 762 762 756 749 760 759 753 756 760 764 771 776 779 781 777 777 780 781 790 790 781 774 769 769 771 773 775 776 779 783
796 795 793 792 791 790 788 787 786 784 783 781 780 779 778 777 776 775 773 772 771 770 770 769 768 768 768 768 768 768 769 760 738 733 738 736 738 739 740 743 743 746 747 748 745 743 743 742 745 750 752 754 750 745 741 733 738 759 762 756 751 743 749 755 753 755 758 764 773 776 776 777 779 783 780 780 785 780 775 774 767 766 768 770 773 776 780 783
795 793 792 791 789 789 787 786 784 783 781 780 779 777 776 775 774 773 771 770 770 769 769 768 768 768 767 767 767 767 767 752 734 736 737 735 739 738 740 742 743 746 746 747 744 742 743 745 748 750 752 754 750 742 735 730 733 753 766 758 749 740 741 750 752 751 756 764 769 770 774 778 782 784 781 781 780 773 773 773 766 765 767 769 773 776 780 783
794 793 791 789 788 787 786 784 783 781 780 779 777 776 774 773 772 771 770 769 768 767 768 767 768 767 767 767 766 763 759 746 734 736 736 736 738 737 740 741 743 745 744 745 742 740 742 746 747 746 753 751 742 739 731 732 737 747 761 756 744 738 738 745 748 750 756 762 765 770 777 779 778 779 781 781 777 771 771 772 768 766 769 771 774 777 780 783
793 791 789 788 787 785 784 783 781 780 778 777 776 774 773 771 770 769 768 767 766 767 766 766 767 766 768 767 765 762 749 736 734 736 735 736 736 737 740 740 743 744 743 744 739 739 741 744 744 741 748 744 737 736 730 739 749 743 749 749 743 742 737 741 751 756 758 759 765 775 780 779 775 776 783 779 773 770 767 772 772 768 772 774 775 778 780 783
792 790 789 787 785 784 783 781 780 778 777 776 774 772 771 770 769 767 766 765 765 765 764 766 766 765 768 766 765 761 742 732 736 736 735 736 736 738 739 740 742 742 742 741 738 737 737 739 737 733 739 740 738 738 732 739 743 734 739 741 740 742 735 736 752 760 759 761 766 777 784 781 775 780 790 781 771 770 769 773 772 770 774 775 777 779 780 784
792 790 788 786 784 783 781 780 778 777 776 774 773 771 770 768 767 766 764 764 763 763 764 765 765 766 767 765 765 756 737 733 736 735 737 736 736 738 738 740 741 741 741 738 737 735 734 733 729 732 739 740 740 740 735 731 730 729 736 743 741 741 737 735 750 759 760 767 769 776 786 785 781 786 788 779 772 772 772 772 770 772 775 775 778 780 782 783
791 789 787 785 783 781 780 779 776 775 774 772 772 770 768 766 765 764 763 762 762 762 763 763 765 765 765 764 758 746 735 735 735 736 738 736 737 738 738 740 739 740 739 736 736 733 733 731 728 737 739 737 742 744 737 726 726 730 736 752 750 744 744 739 750 760 761 771 772 777 795 797 791 788 780 773 773 772 772 773 773 774 775 776 778 781 783 783
791 789 786 784 782 780 779 777 775 774 772 771 770 768 767 765 763 762 761 761 761 761 762 763 764 764 766 760 744 736 736 735 735 736 737 737 738 738 738 739 739 740 738 734 733 732 733 731 731 737 734 738 744 739 734 725 728 736 739 752 756 755 754 745 753 760 763 773 769 776 805 808 793 785 778 772 772 773 774 775 773 774 775 776 778 781 782 783
790 788 786 784 781 779 777 776 774 773 772 771 769 767 766 763 762 761 760 760 760 761 762 762 764 765 766 754 735 734 737 734 736 736 736 736 736 737 737 737 739 739 737 734 732 731 733 731 732 737 735 739 738 732 737 734 733 740 745 750 756 766 764 751 756 761 769 779 770 780 809 809 793 787 781 774 776 779 777 775 773 774 775 776 778 781 783 783
790 787 785 783 781 779 777 775 773 772 771 770 768 767 765 763 762 760 760 760 760 761 761 762 764 763 761 749 734 735 737 735 735 734 734 735 734 735 735 736 738 737 736 734 732 732 732 732 736 745 743 737 736 743 750 746 740 742 755 760 758 766 766 758 759 760 771 779 773 786 805 800 790 789 783 777 781 784 780 775 774 775 775 777 780 781 784 785
789 787 785 782 780 778 776 774 773 772 771 769 768 767 765 764 762 761 760 759 760 761 761 763 761 760 760 747 734 735 737 735 733 733 734 733 733 733 734 736 736 736 736 733 732 731 731 735 740 744 744 741 745 754 755 755 752 746 755 764 759 763 768 768 767 759 763 773 774 782 795 796 788 787 786 781 783 785 783 779 775 776 776 778 781 781 784 786
788 786 784 782 780 777 776 774 772 771 770 769 768 767 766 765 763 762 761 760 761 760 761 759 755 758 754 740 736 736 733 732 732 733 733 732 732 732 733 735 735 735 735 734 735 733 734 740 744 745 745 747 746 752 763 769 763 751 751 756 755 756 760 769 775 765 759 770 776 778 789 795 787 784 787 785 786 787 789 790 783 778 777 778 781 783 784 786
787 785 783 781 779 777 775 773 772 771 769 768 767 767 766 765 764 763 762 762 762 762 762 757 755 762 753 736 736 734 729 730 731 731 732 732 732 732 734 734 734 736 738 741 741 740 742 743 746 751 751 751 748 752 767 766 754 750 751 753 753 749 752 765 773 767 763 770 777 784 791 792 788 787 788 788 789 791 793 794 792 784 779 780 781 782 784 786
786 784 782 780 778 776 774 772 771 770 768 768 767 766 765 765 764 763 762 762 762 762 760 753 752 757 748 732 728 725 725 728 730 731 731 731 732 733 734 734 734 739 745 751 748 743 745 748 752 758 757 753 750 749 753 747 736 736 736 741 748 747 749 756 761 759 760 770 777 784 789 788 795 794 787 790 791 793 797 796 799 795 783 781 781 781 784 786
785 783 781 779 777 776 774 772 771 770 768 767 767 766 764 762 762 761 759 758 756 752 748 744 742 743 736 726 723 723 726 729 730 731 730 730 731 733 735 735 738 743 747 752 751 742 743 755 759 757 753 746 743 741 739 735 729 726 726 730 737 740 743 746 754 755 755 771 779 778 781 782 794 797 785 786 789 790 798 800 804 803 791 784 782 781 783 785
784 782 780 778 777 775 774 773 771 770 768 767 767 767 761 757 760 760 756 753 746 741 742 738 734 735 731 725 724 723 728 733 731 729 731 731 730 737 740 738 746 752 748 744 744 739 744 758 756 746 742 736 734 735 735 735 732 730 730 733 736 735 738 741 750 755 754 772 778 772 783 785 786 795 787 781 787 789 792 795 799 799 795 790 785 783 783 783
783 781 779 778 777 775 774 773 772 770 769 768 768 765 757 755 758 757 754 754 744 734 736 735 733 734 728 726 726 725 730 737 736 730 729 730 732 739 741 741 750 752 745 741 743 747 754 757 747 735 733 731 730 730 733 736 734 735 732 738 742 731 736 748 751 754 754 767 776 771 785 794 783 786 786 781 785 787 787 788 789 791 793 792 789 787 784 783
783 781 779 778 776 775 774 773 772 771 769 767 765 761 756 756 756 754 754 757 748 734 732 734 736 736 733 731 729 730 735 737 739 734 727 731 734 735 740 744 748 746 743 744 746 753 760 752 737 728 728 732 733 730 732 737 735 737 736 742 745 728 736 755 750 753 753 756 769 770 778 789 784 783 782 779 781 783 784 785 785 787 789 790 789 788 786 784
783 781 780 778 776 776 774 773 772 770 767 765 762 758 757 757 756 756 755 755 750 737 730 729 731 733 733 730 727 733 736 732 734 731 725 731 734 733 737 740 744 745 742 740 740 747 750 739 728 726 727 731 736 732 734 741 741 739 737 740 741 731 734 741 735 742 748 748 756 764 778 786 784 790 788 778 779 782 783 785 787 788 787 789 792 789 786 784
783 782 780 778 777 775 774 774 770 767 764 761 759 757 758 758 756 757 758 759 753 738 730 729 729 729 726 726 728 729 732 730 726 724 723 728 730 733 736 732 738 745 739 736 738 742 739 726 722 730 731 730 736 736 734 741 744 743 738 732 732 733 733 730 729 738 751 761 757 759 788 798 781 788 792 781 782 786 785 786 789 791 789 792 796 791 787 785
783 782 779 778 777 775 775 772 766 764 761 757 757 757 758 758 758 758 760 766 759 739 736 737 734 733 728 728 728 727 737 735 719 715 722 726 724 727 736 733 733 740 733 728 734 736 730 720 719 729 732 731 737 739 732 733 745 749 736 724 724 729 731 730 732 743 753 762 753 745 777 801 787 785 788 782 785 788 786 787 788 790 792 792 792 789 787 788
783 781 779 778 776 776 775 770 766 764 759 757 758 759 758 758 759 757 764 782 769 740 737 739 735 735 731 728 725 732 745 734 717 717 721 726 724 722 736 736 733 736 724 723 740 737 726 724 723 726 731 735 740 741 729 726 745 746 723 718 726 727 729 730 733 746 745 741 741 733 749 786 795 787 782 780 788 790 785 789 791 790 792 791 789 786 785 787
782 780 779 778 776 776 774 771 769 764 760 760 759 759 759 758 758 758 777 799 771 735 734 736 732 731 727 724 725 731 732 722 727 730 718 723 727 725 738 737 733 735 721 727 749 737 723 728 727 727 734 736 735 734 724 724 741 736 714 715 723 723 726 729 735 744 738 740 754 743 739 776 800 788 774 776 789 792 785 791 799 795 793 792 788 787 785 785
781 780 778 777 775 774 773 772 771 765 762 762 761 761 759 758 757 761 787 798 762 733 734 734 733 732 727 729 730 728 724 722 732 730 719 724 726 724 735 732 728 731 721 724 736 729 721 721 716 723 733 731 729 726 718 724 736 724 714 716 715 719 727 731 739 740 739 754 766 750 736 768 802 793 778 783 790 789 784 789 796 794 795 792 787 788 789 787
780 779 777 776 774 773 771 771 769 765 763 762 762 762 758 758 764 781 799 786 752 738 735 734 737 735 733 738 737 729 725 726 728 725 725 729 726 725 727 725 725 727 723 720 723 720 713 709 710 719 727 724 723 723 715 719 725 717 722 726 720 725 730 734 738 738 755 771 761 743 731 755 800 800 781 783 783 779 780 784 786 786 789 788 782 784 786 786
779 778 776 775 773 772 770 766 765 765 764 763 763 760 759 763 775 796 793 761 745 745 737 735 737 734 737 741 740 736 729 728 729 730 735 735 735 736 735 735 735 734 734 731 728 724 716 717 722 722 721 720 722 724 718 715 717 720 729 734 739 745 744 749 751 751 776 783 754 736 725 742 790 797 776 773 771 771 777 779 781 783 783 782 780 780 780 783
778 777 775 774 772 771 769 765 764 765 764 763 761 756 765 781 790 790 772 749 754 754 739 737 734 732 739 738 737 738 734 733 734 734 738 742 744 742 742 744 742 748 753 745 741 738 728 724 726 726 721 721 729 733 727 723 723 727 733 742 760 771 773 779 776 771 783 775 747 732 728 750 784 782 768 769 765 766 770 769 774 777 778 779 780 781 780 781
777 775 774 772 770 769 768 766 766 766 764 763 761 759 774 796 795 776 757 752 758 751 739 737 732 731 738 736 735 735 733 735 735 735 736 739 744 743 741 736 730 744 752 744 744 743 737 729 723 729 728 721 727 736 739 738 735 736 738 750 769 777 790 801 788 780 782 768 747 730 733 770 794 777 765 766 762 762 763 762 766 771 774 777 778 780 781 781
776 774 772 769 769 767 765 766 765 765 764 761 761 770 789 803 792 772 760 752 748 743 740 737 732 733 737 735 734 731 733 736 731 734 737 737 744 744 743 736 726 733 738 740 743 738 748 752 732 729 733 725 725 729 730 731 735 738 730 739 759 762 776 794 787 784 783 768 751 736 744 780 796 778 763 760 759 760 761 760 763 770 774 775 777 779 781 781
774 772 770 767 766 764 762 763 763 764 764 760 766 779 792 798 786 772 764 751 744 743 741 738 736 741 741 737 735 728 731 737 732 734 737 737 743 740 738 736 730 732 736 744 747 733 741 748 726 719 723 722 729 725 714 721 736 736 724 736 751 743 746 762 763 761 763 764 756 750 763 776 777 771 760 758 762 762 763 764 766 775 778 778 780 781 781 782
772 769 768 766 762 760 760 761 761 763 761 764 782 789 784 781 770 761 757 750 749 747 745 746 744 748 751 747 745 735 729 734 735 737 735 734 740 737 733 733 731 735 739 747 753 744 742 736 717 718 723 719 727 724 711 723 739 737 736 744 738 723 727 746 755 745 747 766 760 756 778 780 774 779 768 762 770 768 767 769 771 777 781 783 784 783 783 784
770 767 764 760 758 758 759 759 759 760 759 766 786 788 772 765 758 753 752 749 748 746 751 763 756 752 761 760 754 746 739 738 735 736 737 738 745 744 738 737 734 736 740 745 752 747 746 742 723 723 735 725 719 721 716 717 729 741 747 740 728 725 727 740 758 756 756 769 758 756 782 786 787 795 778 768 776 776 774 775 775 776 779 784 785 785 787 787
769 766 761 756 756 756 756 758 757 756 760 767 782 783 765 756 754 751 752 752 751 749 762 778 768 757 766 767 760 750 748 749 742 740 745 745 749 749 744 743 739 735 737 743 751 745 742 753 741 728 736 730 718 727 734 723 719 729 733 725 732 750 751 749 761 766 768 771 762 768 779 774 780 788 778 775 779 779 780 780 781 783 782 786 787 788 789 788
768 767 761 753 754 755 754 757 754 754 765 774 785 786 764 751 753 752 751 754 755 756 766 774 766 762 767 765 761 754 752 755 749 749 755 752 754 753 747 747 745 740 738 741 749 745 739 754 757 736 728 731 730 739 750 743 726 724 728 728 734 744 746 747 749 754 765 766 769 790 796 783 780 776 772 779 778 777 784 786 788 791 790 791 790 791 790 788
765 765 760 751 752 754 752 755 753 757 771 774 775 773 758 751 754 750 749 752 754 759 766 766 763 766 765 760 762 758 751 752 749 753 759 755 757 759 751 750 751 746 744 743 745 745 739 746 757 744 730 737 746 745 745 746 739 739 745 746 743 738 735 739 736 735 750 760 769 796 815 806 788 773 771 779 779 779 784 789 794 796 796 797 795 795 793 789
762 763 758 750 751 752 750 755 756 756 762 763 760 760 757 757 755 750 750 750 751 754 758 762 764 765 764 764 765 759 753 755 756 760 763 759 762 765 757 753 753 750 750 748 745 745 744 746 755 754 744 746 747 736 731 734 733 737 743 741 740 738 740 754 754 735 734 747 756 780 813 813 785 769 772 775 778 782 783 789 796 798 801 802 798 798 796 791
764 765 757 749 751 751 751 757 755 751 755 758 758 758 759 759 755 753 752 751 752 753 752 758 762 762 763 764 762 759 758 764 768 770 771 766 765 767 761 753 751 750 751 751 746 742 744 750 757 755 745 739 733 723 724 729 727 730 734 730 730 732 738 754 760 745 734 739 747 770 806 811 781 765 770 772 776 781 783 789 796 799 802 804 802 800 797 794
762 758 751 749 750 748 754 761 756 753 758 759 756 757 758 758 756 755 754 753 755 755 754 757 759 762 764 761 760 759 760 767 770 768 769 768 765 765 760 754 752 749 750 755 753 747 747 753 761 761 748 736 729 725 727 728 730 737 736 729 727 727 729 735 738 742 743 744 755 782 810 810 782 767 771 774 777 782 785 789 795 801 804 805 806 804 801 800
759 753 748 749 749 746 754 761 758 759 763 760 758 760 761 761 761 760 758 759 758 756 758 760 759 761 762 760 761 760 763 778 779 767 764 766 766 763 759 756 756 753 756 763 762 756 756 757 764 774 771 758 751 752 750 742 740 745 739 732 730 723 725 733 734 743 754 750 756 786 812 807 784 772 775 778 780 785 788 790 794 800 805 806 807 808 807 807
763 757 749 746 744 745 752 754 753 759 764 763 763 764 763 764 765 764 762 762 759 757 761 761 758 758 757 759 764 762 764 780 783 770 762 764 765 763 759 758 759 757 759 764 760 756 761 761 763 776 786 786 784 780 769 753 748 748 739 734 734 727 731 743 745 755 764 754 757 783 803 801 785 778 781 781 783 789 791 791 793 797 802 804 806 808 809 809
766 761 755 750 745 745 751 750 750 758 762 763 767 766 765 768 766 764 763 764 762 759 760 760 758 759 760 761 765 766 764 767 770 767 765 765 766 764 761 759 760 761 761 762 758 756 762 764 764 772 780 783 784 776 759 746 748 751 745 740 736 733 737 746 754 764 762 757 771 783 786 793 793 786 786 786 787 792 793 794 795 796 800 803 804 807 808 808
764 764 763 762 758 754 755 755 755 760 760 763 770 769 767 769 768 766 766 766 765 763 762 762 760 764 769 766 765 769 770 768 766 766 767 766 765 765 763 760 761 763 762 760 757 758 768 770 764 767 772 768 765 761 752 748 751 750 748 745 740 740 745 749 757 761 753 763 790 788 776 789 794 784 785 788 788 791 792 793 795 796 798 802 803 805 806 807
764 766 763 764 768 767 765 764 761 762 762 764 769 769 768 771 772 772 770 768 766 765 766 769 767 767 769 770 775 781 782 781 779 775 773 772 768 766 766 763 763 763 762 761 758 762 774 774 761 761 767 762 759 759 754 753 753 746 743 744 743 746 752 754 757 754 747 763 789 787 780 787 787 781 783 784 784 788 789 790 793 794 795 797 801 804 805 807
765 766 761 760 766 769 769 767 764 765 768 769 770 771 771 773 775 774 770 770 772 770 770 776 776 773 770 770 781 792 790 791 796 790 782 778 773 770 771 771 768 764 764 766 764 765 774 776 765 764 766 762 760 761 756 755 757 752 747 749 751 753 752 752 754 748 746 760 774 776 781 786 782 781 783 780 780 784 787 789 792 795 798 799 801 805 806 808
771 772 770 765 766 768 767 766 765 768 771 772 774 774 772 774 777 775 771 774 780 777 773 779 780 777 776 774 780 788 786 786 793 790 783 781 779 776 777 779 776 770 769 772 770 768 775 779 773 772 776 771 763 763 761 760 762 761 756 754 758 760 755 753 752 747 750 765 770 772 785 792 785 780 782 782 783 786 790 792 793 797 801 802 804 807 808 809
775 774 773 773 773 772 771 768 765 768 770 772 776 776 774 776 777 777 776 776 779 780 777 780 780 777 779 781 782 785 783 780 783 782 778 779 779 778 779 780 779 778 776 775 775 773 775 778 773 778 791 783 765 765 767 761 763 766 761 757 761 764 761 756 755 753 755 766 775 782 795 798 787 781 785 788 789 793 797 798 798 801 803 804 808 810 810 812
780 776 774 776 777 773 770 768 766 770 774 775 777 776 776 778 775 777 783 781 778 780 778 778 779 779 783 788 788 785 782 779 778 777 775 775 774 774 776 776 776 780 781 780 780 776 776 780 778 782 795 788 767 764 766 767 779 782 768 759 760 762 760 756 755 756 753 757 773 789 794 790 783 783 790 794 796 799 802 802 804 807 806 807 809 810 811 812